Radiation Dose measured at exhaust stack monitor of Fukushima Daiichi Nuclear Power Station
Date,Time,Unit 5 6 shared exhaust cylinders,Wind Direction,Wind Velocity(m/s)
2023/08/16,00:00,3.5,south,8.7
2023/08/16,00:10,3.6,south,8.9
2023/08/16,00:20,3.6,south,7.7
2023/08/16,00:30,3.5,south,8.5
2023/08/16,00:40,3.6,south,8.0
2023/08/16,00:50,3.7,south,7.9
2023/08/16,01:00,3.6,south,9.0
2023/08/16,01:10,3.6,south,7.1
2023/08/16,01:20,3.7,south,6.9
2023/08/16,01:30,3.6,south,7.3
2023/08/16,01:40,3.7,south,7.3
2023/08/16,01:50,3.6,south,6.6
2023/08/16,02:00,3.7,south,7.4
2023/08/16,02:10,3.6,south,7.7
2023/08/16,02:20,3.6,south,7.8
2023/08/16,02:30,3.5,south,8.1
2023/08/16,02:40,3.5,south,7.3
2023/08/16,02:50,3.8,south,6.4
2023/08/16,03:00,3.9,south,7.2
2023/08/16,03:10,3.7,south-southeast,7.3
2023/08/16,03:20,3.7,south,6.6
2023/08/16,03:30,3.8,south,6.8
2023/08/16,03:40,3.6,south,6.4
2023/08/16,03:50,3.7,south,6.6
2023/08/16,04:00,3.6,south-southeast,6.8
2023/08/16,04:10,3.5,south-southeast,6.8
2023/08/16,04:20,3.5,south,6.0
2023/08/16,04:30,3.6,south,6.8
2023/08/16,04:40,3.6,south,7.4
2023/08/16,04:50,3.6,south,6.4
2023/08/16,05:00,3.6,south,6.8
2023/08/16,05:10,3.6,south,7.1
2023/08/16,05:20,3.6,south,6.3
2023/08/16,05:30,3.6,south-southeast,7.4
2023/08/16,05:40,3.7,south,7.6
2023/08/16,05:50,3.7,south,9.1
2023/08/16,06:00,3.6,south-southeast,9.8
2023/08/16,06:10,3.7,south-southeast,8.3
2023/08/16,06:20,3.7,south-southeast,6.2
2023/08/16,06:30,3.5,south,6.7
2023/08/16,06:40,3.7,south,6.3
2023/08/16,06:50,3.7,south,6.1
2023/08/16,07:00,3.6,south-southeast,7.0
2023/08/16,07:10,3.7,south-southeast,7.9
2023/08/16,07:20,3.5,south-southeast,8.7
2023/08/16,07:30,3.5,south-southeast,8.1
2023/08/16,07:40,3.8,south-southeast,8.0
2023/08/16,07:50,3.6,south-southeast,8.6
2023/08/16,08:00,3.8,south-southeast,9.8
2023/08/16,08:10,3.7,south-southeast,9.2
2023/08/16,08:20,3.7,south-southeast,9.0
2023/08/16,08:30,3.7,south-southeast,10.0
2023/08/16,08:40,3.6,south-southeast,9.4
2023/08/16,08:50,3.6,south-southeast,10.7
2023/08/16,09:00,3.8,south-southeast,11.9
2023/08/16,09:10,3.5,south-southeast,10.6
2023/08/16,09:20,3.9,south-southeast,8.4
2023/08/16,09:30,3.6,south-southeast,9.8
2023/08/16,09:40,3.5,south-southeast,12.5
2023/08/16,09:50,3.6,south-southeast,11.3
2023/08/16,10:00,3.7,south-southeast,11.9
2023/08/16,10:10,3.7,south-southeast,11.6
2023/08/16,10:20,3.5,south-southeast,12.5
2023/08/16,10:30,3.6,south-southeast,13.1
2023/08/16,10:40,3.6,south-southeast,14.1
2023/08/16,10:50,3.7,south-southeast,11.3
2023/08/16,11:00,3.5,south-southeast,9.2
2023/08/16,11:10,3.7,south-southeast,12.7
2023/08/16,11:20,3.5,south-southeast,11.8
2023/08/16,11:30,3.5,south-southeast,11.7
2023/08/16,11:40,3.6,south-southeast,11.8
2023/08/16,11:50,3.6,south-southeast,10.5
2023/08/16,12:00,3.6,south-southeast,10.8
2023/08/16,12:10,3.6,south-southeast,11.6
2023/08/16,12:20,3.5,south-southeast,11.3
2023/08/16,12:30,3.6,south-southeast,10.9
2023/08/16,12:40,3.8,south-southeast,13.5
2023/08/16,12:50,3.5,south-southeast,12.7
2023/08/16,13:00,3.5,south-southeast,9.6
2023/08/16,13:10,3.8,south-southeast,12.2
2023/08/16,13:20,3.6,south-southeast,12.8
2023/08/16,13:30,3.7,south-southeast,12.7
2023/08/16,13:40,3.8,south-southeast,11.3
2023/08/16,13:50,3.7,south-southeast,10.7
2023/08/16,14:00,3.5,south-southeast,10.5
2023/08/16,14:10,3.5,south-southeast,11.1
2023/08/16,14:20,3.5,south-southeast,10.2
2023/08/16,14:30,3.7,south-southeast,11.3
2023/08/16,14:40,3.6,south-southeast,11.3
2023/08/16,14:50,3.6,south-southeast,12.4
2023/08/16,15:00,3.8,south-southeast,11.3
2023/08/16,15:10,3.7,south-southeast,10.8
2023/08/16,15:20,3.6,south-southeast,11.6
2023/08/16,15:30,3.5,south-southeast,11.0
2023/08/16,15:40,3.5,south-southeast,13.5
2023/08/16,15:50,3.6,south-southeast,13.1
2023/08/16,16:00,3.7,south-southeast,15.0
2023/08/16,16:10,3.6,south-southeast,12.4
2023/08/16,16:20,3.6,south-southeast,13.0
2023/08/16,16:30,3.6,south-southeast,10.5
2023/08/16,16:40,3.6,south,10.0
2023/08/16,16:50,3.7,south-southeast,10.9
2023/08/16,17:00,3.4,south,9.5
2023/08/16,17:10,3.7,south,10.8
2023/08/16,17:20,3.5,south-southeast,10.6
2023/08/16,17:30,3.9,south-southeast,11.9
2023/08/16,17:40,3.5,south-southeast,11.1
2023/08/16,17:50,3.6,south,10.8
2023/08/16,18:00,3.8,south-southeast,11.7
2023/08/16,18:10,3.6,south,9.5
2023/08/16,18:20,3.7,south,8.7
2023/08/16,18:30,3.4,south-southeast,9.1
2023/08/16,18:40,3.7,south,8.3
2023/08/16,18:50,3.6,south,7.7
2023/08/16,19:00,3.6,south,8.3
2023/08/16,19:10,3.5,south,9.5
2023/08/16,19:20,3.7,south,7.0
2023/08/16,19:30,3.7,south,8.6
2023/08/16,19:40,3.7,south,7.9
2023/08/16,19:50,3.6,south,8.1
2023/08/16,20:00,3.5,south,9.2
2023/08/16,20:10,3.7,south,10.5
2023/08/16,20:20,3.6,south,9.1
2023/08/16,20:30,3.6,south,9.3
2023/08/16,20:40,3.6,south,9.0
2023/08/16,20:50,3.5,south,9.2
2023/08/16,21:00,3.7,south,8.4
2023/08/16,21:10,3.7,south,8.2
2023/08/16,21:20,3.5,south-southeast,7.7
2023/08/16,21:30,3.6,south,8.5
2023/08/16,21:40,3.6,south-southeast,10.2
2023/08/16,21:50,3.6,south-southeast,10.8
2023/08/16,22:00,3.7,south,8.1
2023/08/16,22:10,3.6,south,6.3
2023/08/16,22:20,3.6,south,7.3
2023/08/16,22:30,3.7,south,6.4
2023/08/16,22:40,3.6,south,6.4
2023/08/16,22:50,3.6,south,6.7
2023/08/16,23:00,3.6,south,7.0
2023/08/16,23:10,3.7,south,7.8
2023/08/16,23:20,3.6,south,8.9
2023/08/16,23:30,3.7,south,9.0
2023/08/16,23:40,3.5,south,8.7
2023/08/16,23:50,3.6,south,9.6
